Fort Dodge, IA

3:51 AM CDT on May 28, 2018 (GMT -0500)
Fort Dodge Regional

Weather History for KFOD - February, 2014

Change the Weather History Date:

Monday, February 10, 2014

  Actual Average Record
Temperature  
Mean Temperature -6 °F -  
Max Temperature 1 °F 30 °F 63 °F (1976)
Min Temperature -14 °F 10 °F -22 °F (1975)
Degree Days  
Heating Degree Days 72    
Moisture  
Dew Point -12 °F    
Average Humidity 73    
Maximum Humidity 100    
Minimum Humidity 61    
Precipitation  
Precipitation 0.00 in - - ()
Sea Level Pressure  
Sea Level Pressure 30.46 in    
Wind  
Wind Speed 3 mph (NW)    
Max Wind Speed 9 mph    
Max Gust Speed -    
Visibility 10 miles    
Events      
Averages and records for this station are not official NWS values.
T = Trace of Precipitation, MM = Missing Value Source: NWS Daily Summary

Daily Weather History Graph

Daily Weather History Graph

Search for Another Location

Airport or City:

Astronomy

Feb. 10, 2014 Rise Set
Actual Time 7:20 AM CST 5:42 PM CST
Civil Twilight 6:50 AM CST 6:11 PM CST
Nautical Twilight 6:17 AM CST 6:44 PM CST
Astronomical Twilight 5:45 AM CST 7:17 PM CST
Moon 2:09 PM CST (2/10) 4:16 AM CST (2/10)
Length of Visible Light 11h 20m
Length of Day
10h 22m
Waxing Gibbous, 85% of the Moon is Illuminated
Feb 10
Waxing Gibbous
Feb 14
Full
Feb 22
Last Quarter
Mar 1
New
Mar 8
First Quarter

Hourly Weather History & Observations

Time (CST) Temp. Windchill Dew Point Humidity Pressure Visibility Wind Dir Wind Speed Gust Speed Precip Events Conditions
12:15 AM -5.8 °F -16.7 °F - N/A% 30.41 in 10.0 mi NNW 4.6 mph - N/A   Clear
12:35 AM -5.8 °F - -13.0 °F 71% 30.41 in 10.0 mi Calm Calm - N/A   Clear
12:55 AM -7.6 °F -16.5 °F -16.6 °F 65% 30.40 in 10.0 mi NW 3.5 mph - N/A   Clear
1:15 AM -7.6 °F - -14.8 °F 71% 30.40 in 10.0 mi Calm Calm - N/A   Clear
1:35 AM -7.6 °F -22.1 °F -13.0 °F 77% 30.40 in 10.0 mi NNW 6.9 mph - N/A   Clear
1:55 AM -7.6 °F -22.1 °F -13.0 °F 77% 30.40 in 10.0 mi North 6.9 mph - N/A   Clear
2:15 AM -7.6 °F -20.6 °F -13.0 °F 77% 30.41 in 10.0 mi North 5.8 mph - N/A   Clear
2:35 AM -7.6 °F -18.8 °F -11.2 °F 84% 30.41 in 10.0 mi NNW 4.6 mph - N/A   Clear
2:55 AM -7.6 °F - -13.0 °F 77% 30.41 in 10.0 mi Calm Calm - N/A   Clear
3:15 AM -7.6 °F -16.5 °F -16.6 °F 65% 30.42 in 10.0 mi NNW 3.5 mph - N/A   Clear
3:35 AM -9.4 °F - -14.8 °F 77% 30.43 in 10.0 mi Calm Calm - N/A   Clear
3:55 AM -9.4 °F - -14.8 °F 77% 30.43 in 10.0 mi Calm Calm - N/A   Clear
4:15 AM -9.4 °F -18.6 °F -16.6 °F 71% 30.43 in 10.0 mi NNW 3.5 mph - N/A   Clear
4:35 AM -9.4 °F -20.9 °F -16.6 °F 71% 30.42 in 10.0 mi North 4.6 mph - N/A   Clear
4:55 AM -11.2 °F -20.6 °F -14.8 °F 84% 30.43 in 10.0 mi NNW 3.5 mph - N/A   Clear
5:15 AM -11.2 °F -20.6 °F -18.4 °F 70% 30.43 in 10.0 mi North 3.5 mph - N/A   Clear
5:35 AM -11.2 °F -20.6 °F -16.6 °F 77% 30.43 in 10.0 mi North 3.5 mph - N/A   Clear
5:55 AM -11.2 °F - -16.6 °F 77% 30.44 in 10.0 mi Calm Calm - N/A   Clear
6:15 AM -14.8 °F -27.2 °F -23.8 °F 64% 30.44 in 10.0 mi WSW 4.6 mph - N/A   Clear
6:35 AM -14.8 °F -24.8 °F -22.0 °F 70% 30.45 in 10.0 mi WSW 3.5 mph - N/A   Clear
6:55 AM -13.0 °F -25.1 °F -13.0 °F 100% 30.45 in 10.0 mi West 4.6 mph - N/A   Clear
7:15 AM -14.8 °F -24.8 °F -20.2 °F 77% 30.46 in 10.0 mi WSW 3.5 mph - N/A   Clear
7:35 AM -14.8 °F - -20.2 °F 77% 30.46 in 10.0 mi Calm Calm - N/A   Clear
7:55 AM -13.0 °F - -16.6 °F 84% 30.46 in 10.0 mi Calm Calm - N/A   Clear
8:15 AM -11.2 °F - -16.6 °F 77% 30.48 in 10.0 mi Calm Calm - N/A   Clear
8:35 AM -11.2 °F - -16.6 °F 77% 30.48 in 10.0 mi Calm Calm - N/A   Clear
8:55 AM -9.4 °F - -13.0 °F 84% 30.48 in 10.0 mi Calm Calm - N/A   Clear
9:15 AM -7.6 °F -16.5 °F -11.2 °F 84% 30.49 in 10.0 mi WNW 3.5 mph - N/A   Clear
9:35 AM -5.8 °F -19.9 °F -11.2 °F 77% 30.49 in 10.0 mi NW 6.9 mph - N/A   Clear
9:55 AM -4.0 °F -17.8 °F -9.4 °F 78% 30.49 in 10.0 mi WNW 6.9 mph - N/A   Clear
10:15 AM -2.2 °F -16.8 °F -9.4 °F 71% 30.49 in 10.0 mi NW 8.1 mph - N/A   Clear
10:35 AM -2.2 °F -14.2 °F -7.6 °F 78% 30.49 in 10.0 mi NW 5.8 mph - N/A   Clear
10:55 AM -2.2 °F -15.6 °F -9.4 °F 71% 30.49 in 10.0 mi NW 6.9 mph - N/A   Clear
11:15 AM -0.4 °F -13.4 °F -9.4 °F 66% 30.50 in 10.0 mi NNW 6.9 mph - N/A   Clear
11:35 AM -0.4 °F -12.0 °F -9.4 °F 66% 30.50 in 10.0 mi NNW 5.8 mph - N/A   Clear
11:55 AM -0.4 °F -13.4 °F -7.6 °F 72% 30.49 in 10.0 mi NW 6.9 mph - N/A   Clear
12:15 PM -0.4 °F -14.7 °F -7.6 °F 72% 30.49 in 10.0 mi NW 8.1 mph - N/A   Clear
12:35 PM -0.4 °F -13.4 °F -7.6 °F 72% 30.48 in 10.0 mi NW 6.9 mph - N/A   Clear
12:55 PM 1.4 °F -11.3 °F -7.6 °F 66% 30.48 in 10.0 mi NW 6.9 mph - N/A   Clear
1:15 PM 1.4 °F -12.5 °F -7.6 °F 66% 30.47 in 10.0 mi NW 8.1 mph - N/A   Clear
1:35 PM 1.4 °F -11.3 °F -7.6 °F 66% 30.46 in 10.0 mi NW 6.9 mph - N/A   Clear
1:55 PM 1.4 °F -9.9 °F -5.8 °F 72% 30.46 in 10.0 mi NNW 5.8 mph - N/A   Clear
2:15 PM 1.4 °F -11.3 °F -7.6 °F 66% 30.47 in 10.0 mi NW 6.9 mph - N/A   Clear
2:35 PM 1.4 °F -12.5 °F -5.8 °F 72% 30.46 in 10.0 mi NW 8.1 mph - N/A   Clear
2:55 PM 1.4 °F -13.5 °F -7.6 °F 66% 30.46 in 10.0 mi WNW 9.2 mph - N/A   Clear
3:15 PM 1.4 °F -9.9 °F -7.6 °F 66% 30.46 in 10.0 mi NW 5.8 mph - N/A   Clear
3:35 PM 1.4 °F -8.3 °F -7.6 °F 66% 30.46 in 10.0 mi NNW 4.6 mph - N/A   Clear
3:55 PM 1.4 °F -11.3 °F -7.6 °F 66% 30.45 in 10.0 mi North 6.9 mph - N/A   Clear
4:15 PM 1.4 °F -8.3 °F -7.6 °F 66% 30.46 in 10.0 mi NNW 4.6 mph - N/A   Clear
4:35 PM 1.4 °F -8.3 °F -7.6 °F 66% 30.46 in 10.0 mi NNW 4.6 mph - N/A   Clear
4:55 PM 1.4 °F -9.9 °F -7.6 °F 66% 30.46 in 10.0 mi North 5.8 mph - N/A   Clear
5:15 PM 1.4 °F - -9.4 °F 61% 30.46 in 10.0 mi Calm Calm - N/A   Clear
5:35 PM -0.4 °F -8.3 °F -9.4 °F 66% 30.46 in 10.0 mi North 3.5 mph - N/A   Clear
5:55 PM -0.4 °F - -9.4 °F 66% 30.47 in 10.0 mi Calm Calm - N/A   Clear
6:15 PM -2.2 °F - -11.2 °F 66% 30.48 in 10.0 mi Calm Calm - N/A   Clear
6:35 PM -2.2 °F -10.4 °F -9.4 °F 71% 30.48 in 10.0 mi NNW 3.5 mph - N/A   Clear
6:55 PM -2.2 °F -10.4 °F -9.4 °F 71% 30.47 in 10.0 mi North 3.5 mph - N/A   Clear
7:15 PM -4.0 °F - -13.0 °F 65% 30.47 in 10.0 mi Calm Calm - N/A   Mostly Cloudy
7:35 PM -2.2 °F - -7.6 °F 78% 30.46 in 10.0 mi North - - N/A   Mostly Cloudy
7:55 PM -4.0 °F - -11.2 °F 71% 30.46 in 10.0 mi Calm Calm - N/A   Scattered Clouds
8:15 PM -5.8 °F - -11.2 °F 77% 30.46 in 10.0 mi Calm Calm - N/A   Partly Cloudy
8:35 PM -7.6 °F - -16.6 °F 65% 30.46 in 10.0 mi Calm Calm - N/A   Partly Cloudy
8:55 PM -5.8 °F - -9.4 °F 84% 30.47 in 10.0 mi Calm Calm - N/A   Clear
9:15 PM -7.6 °F - -14.8 °F 71% 30.47 in 10.0 mi Calm Calm - N/A   Clear
9:35 PM -9.4 °F - -18.4 °F 65% 30.48 in 10.0 mi Calm Calm - N/A   Clear
9:55 PM -9.4 °F - -14.8 °F 77% 30.47 in 10.0 mi Calm Calm - N/A   Clear
10:15 PM -9.4 °F - -11.2 °F 92% 30.47 in 10.0 mi Calm Calm - N/A   Clear
10:35 PM -11.2 °F - -18.4 °F 70% 30.48 in 10.0 mi Calm Calm - N/A   Clear
10:55 PM -11.2 °F - -14.8 °F 84% 30.48 in 10.0 mi Calm Calm - N/A   Clear
11:15 PM -11.2 °F - -16.6 °F 77% 30.48 in 10.0 mi Calm Calm - N/A   Clear
11:35 PM -11.2 °F - -16.6 °F 77% 30.47 in 10.0 mi Calm Calm - N/A   Clear
11:55 PM -11.2 °F - -16.6 °F 77% 30.46 in 10.0 mi Calm Calm - N/A   Clear